FW8921 Weather Reports


time (UTC)temp
F
wind
direction
speed
knots
gust
knots
rain 1hr
in
rain 24hr
in
rain mn
in
humidity
%
barometer
mb
20260504212508 66 182 5.2 11.3 0.00 0.00 0.00 41 1008.7
20260504212010 67 215 5.2 10.4 0.00 0.00 0.00 40 1008.7
20260504211511 67 144 2.6 13.9 0.00 0.00 0.00 41 1008.8
20260504211003 67 187 1.7 13.9 0.00 0.00 0.00 39 1008.8
20260504210506 68 184 4.3 11.3 0.00 0.00 0.00 40 1008.7
20260504210016 68 314 6.1 12.2 0.00 0.00 0.00 38 1008.7
20260504205509 68 171 4.3 12.2 0.00 0.00 0.00 37 1008.7
20260504205010 68 141 4.3 12.2 0.00 0.00 0.00 37 1008.7
20260504204529 67 147 1.7 15.6 0.00 0.00 0.00 37 1008.8
20260504204009 68 209 3.5 15.6 0.00 0.00 0.00 37 1008.7
20260504203507 68 193 2.6 11.3 0.00 0.00 0.00 38 1008.6
20260504203025 68 126 4.3 11.3 0.00 0.00 0.00 38 1008.7
20260504202511 68 170 4.3 14.8 0.00 0.00 0.00 36 1008.7
20260504202011 68 179 7.8 14.8 0.00 0.00 0.00 35 1008.7
20260504201526 68 202 2.6 16.5 0.00 0.00 0.00 36 1008.6
20260504201011 68 248 2.6 16.5 0.00 0.00 0.00 37 1008.7
20260504200509 68 207 6.1 14.8 0.00 0.00 0.00 37 1008.7
20260504200021 68 161 5.2 14.8 0.00 0.00 0.00 35 1008.8
20260504195507 68 186 3.5 12.2 0.00 0.00 0.00 34 1008.6
20260504195003 68 309 0.9 14.8 0.00 0.00 0.00 37 1008.6
20260504194517 68 178 5.2 14.8 0.00 0.00 0.00 36 1008.5
20260504194009 69 178 0.0 11.3 0.00 0.00 0.00 34 1008.7
20260504193509 69 311 1.7 11.3 0.00 0.00 0.00 34 1008.6
20260504193023 69 224 0.0 10.4 0.00 0.00 0.00 35 1008.7
20260504192509 69 262 0.0 13.0 0.00 0.00 0.00 35 1008.6
20260504192009 69 297 4.3 13.0 0.00 0.00 0.00 33 1008.8
20260504191546 69 186 0.9 8.7 0.00 0.00 0.00 33 1008.7
20260504191010 69 266 0.0 12.2 0.00 0.00 0.00 35 1008.8
20260504190507 68 136 3.5 12.2 0.00 0.00 0.00 32 1008.8
20260504190026 69 257 3.5 12.2 0.00 0.00 0.00 34 1008.8
20260504185506 68 240 0.0 16.5 0.00 0.00 0.00 33 1008.8
20260504185009 68 165 5.2 16.5 0.00 0.00 0.00 34 1008.9
20260504184515 68 213 0.9 18.2 0.00 0.00 0.00 32 1008.9
20260504184015 68 208 2.6 18.2 0.00 0.00 0.00 35 1009.0
20260504183507 68 198 1.7 9.6 0.00 0.00 0.00 35 1008.9
20260504183035 68 201 0.9 16.5 0.00 0.00 0.00 34 1009.0
20260504182509 67 197 3.5 19.1 0.00 0.00 0.00 33 1009.0
20260504182006 67 162 3.5 19.1 0.00 0.00 0.00 33 1009.1
20260504181505 67 142 1.7 13.9 0.00 0.00 0.00 33 1009.2
20260504181003 67 295 4.3 16.5 0.00 0.00 0.00 31 1009.2
20260504180509 67 175 5.2 16.5 0.00 0.00 0.00 33 1009.3
20260504180005 67 265 7.0 16.5 0.00 0.00 0.00 31 1009.5
20260504175502 67 179 3.5 13.9 0.00 0.00 0.00 34 1009.4
20260504175002 67 289 0.9 14.8 0.00 0.00 0.00 33 1009.3
20260504174507 66 225 4.3 14.8 0.00 0.00 0.00 32 1009.5
20260504174003 67 187 5.2 13.9 0.00 0.00 0.00 30 1009.7
20260504173503 67 129 5.2 13.9 0.00 0.00 0.00 30 1009.6
20260504173007 67 247 0.0 13.9 0.00 0.00 0.00 33 1009.7
20260504172504 66 101 6.1 17.4 0.00 0.00 0.00 31 1009.7
20260504172004 66 324 3.5 17.4 0.00 0.00 0.00 34 1009.7
20260504171508 66 219 5.2 14.8 0.00 0.00 0.00 31 1009.8
20260504171005 66 37 2.6 15.6 0.00 0.00 0.00 30 1009.8
20260504170503 66 234 5.2 15.6 0.00 0.00 0.00 32 1009.9
20260504151003 63 263 3.5 11.3 0.00 0.00 0.00 36 1010.9
20260504150506 63 137 3.5 12.2 0.00 0.00 0.00 38 1010.8
20260504141006 61 264 4.3 14.8 0.00 0.00 0.00 39 1011.5
20260504140504 60 107 2.6 15.6 0.00 0.00 0.00 41 1011.6
20260504130504 58 274 3.5 11.3 0.00 0.00 0.00 44 1012.0
20260504110506 33 250 0.0 0.0 0.00 0.00 0.00 85 1012.3
20260504100507 31 250 0.0 0.0 0.00 0.00 0.00 84 1012.0
20260504082006 34 250 0.0 0.0 0.00 0.00 0.00 81 1011.5
20260504081518 34 250 0.0 0.0 0.00 0.00 0.00 81 1011.5
20260504081009 35 250 0.0 0.0 0.00 0.00 0.00 80 1011.5
20260504080508 35 250 0.0 0.0 0.00 0.00 0.00 81 1011.5
20260504050504 32 250 0.0 0.0 0.00 0.00 0.00 81 1011.6
20260504050010 32 250 0.0 0.0 0.00 0.00 0.00 81 1011.6
20260504045503 32 250 0.0 0.0 0.00 0.00 0.00 80 1011.6
20260504045003 33 250 0.0 0.0 0.00 0.00 0.00 80 1011.7
20260504044522 33 250 0.0 0.0 0.00 0.00 0.00 80 1011.8
20260504044009 33 250 0.0 0.0 0.00 0.00 0.00 79 1011.7
20260504043506 33 250 0.0 0.0 0.00 0.00 0.00 79 1011.8
20260504043026 33 250 0.0 0.0 0.00 0.00 0.00 79 1011.8
20260504042509 33 250 0.0 0.0 0.00 0.00 0.00 79 1011.8
20260504042007 33 250 0.0 0.0 0.00 0.00 0.00 79 1011.7
20260504041525 33 250 0.0 0.0 0.00 0.00 0.00 79 1011.6
20260504041008 33 250 0.0 0.0 0.00 0.00 0.00 79 1011.7
20260504040507 33 250 0.0 0.0 0.00 0.00 0.00 78 1011.5
20260504040027 33 250 0.0 0.0 0.00 0.00 0.00 78 1011.5
20260504035510 33 250 0.0 0.0 0.00 0.00 0.00 78 1011.5
20260504035004 33 250 0.0 0.0 0.00 0.00 0.00 78 1011.4
20260504034511 33 250 0.0 0.0 0.00 0.00 0.00 78 1011.4
20260504034003 34 250 0.0 0.0 0.00 0.00 0.00 78 1011.3
20260504033503 34 250 0.0 0.0 0.00 0.00 0.00 77 1011.3
20260504033018 34 250 0.0 0.0 0.00 0.00 0.00 78 1011.3
20260504032507 34 250 0.0 0.0 0.00 0.00 0.00 78 1011.3
20260504032011 34 250 0.0 0.0 0.00 0.00 0.00 77 1011.3
20260504031522 34 250 0.0 0.0 0.00 0.00 0.00 78 1011.3
20260504031006 34 250 0.0 0.0 0.00 0.00 0.00 78 1011.3
20260504030507 34 250 0.0 0.0 0.00 0.00 0.00 77 1011.2
20260504030040 34 250 0.0 0.0 0.00 0.00 0.00 77 1011.2
20260504025512 34 250 0.0 0.0 0.00 0.00 0.00 77 1011.1
20260504025010 34 250 0.0 0.0 0.00 0.00 0.00 76 1011.0
20260504024528 35 250 0.0 0.0 0.00 0.00 0.00 76 1011.0
20260504024012 35 250 0.0 0.0 0.00 0.00 0.00 76 1011.0
20260504023509 35 250 0.0 0.0 0.00 0.00 0.00 75 1011.0
20260504023014 35 250 0.0 0.0 0.00 0.00 0.00 75 1011.0
20260504022509 35 250 0.0 0.0 0.00 0.00 0.00 74 1011.0
20260504022008 35 250 0.0 0.0 0.00 0.00 0.00 74 1010.9
20260504021520 35 250 0.0 0.0 0.00 0.00 0.00 74 1010.9
20260504021006 35 250 0.0 0.0 0.00 0.00 0.00 72 1010.9
20260504020508 35 250 0.0 0.0 0.00 0.00 0.00 73 1010.9
20260504020023 36 250 0.0 0.0 0.00 0.00 0.00 72 1010.9
20260504015506 36 250 0.0 0.0 0.00 0.00 0.00 72 1010.8
20260504015006 36 250 0.0 0.0 0.00 0.00 0.00 71 1010.9
20260504014517 36 250 0.0 0.0 0.00 0.00 0.00 70 1010.8
20260504014005 36 250 0.0 0.0 0.00 0.00 0.00 70 1010.8
20260504013503 37 250 0.0 0.0 0.00 0.00 0.00 69 1010.8
20260504013010 37 250 0.0 0.0 0.00 0.00 0.00 69 1010.7
20260504012503 37 250 0.0 0.0 0.00 0.00 0.00 68 1010.7
20260504012006 37 250 0.0 0.0 0.00 0.00 0.00 68 1010.7
20260504011516 38 250 0.0 0.0 0.00 0.00 0.00 67 1010.6
20260504011006 38 250 0.0 0.0 0.00 0.00 0.00 67 1010.5
20260504010506 38 250 0.0 0.0 0.00 0.00 0.00 65 1010.4
20260504010023 39 250 0.0 0.0 0.00 0.00 0.00 65 1010.3
20260504005507 39 250 0.0 0.0 0.00 0.00 0.00 64 1010.2
20260504005008 39 250 0.0 0.0 0.00 0.00 0.00 64 1010.2
20260504004529 40 250 0.0 0.0 0.00 0.00 0.00 61 1010.1
20260504004010 40 250 0.0 0.0 0.00 0.00 0.00 61 1010.0
20260504003508 40 250 0.0 0.0 0.00 0.00 0.00 60 1009.9
20260504003031 41 250 0.0 0.0 0.00 0.00 0.00 60 1009.8
20260504002505 41 250 0.0 0.0 0.00 0.00 0.00 60 1009.8
20260504002003 42 250 0.0 0.0 0.00 0.00 0.00 57 1009.6
20260504001512 43 250 0.0 0.0 0.00 0.00 0.00 56 1009.5
20260504001003 44 250 0.0 0.0 0.00 0.00 0.00 57 1009.5
20260504000504 44 250 0.0 0.0 0.00 0.00 0.00 55 1009.5
20260504000019 45 250 0.0 0.0 0.00 0.00 0.00 52 1009.4
20260503235507 46 250 0.0 0.0 0.00 0.00 0.00 51 1009.4
20260503235010 47 250 0.0 0.0 0.00 0.00 0.00 49 1009.4
20260503234535 48 250 0.0 0.0 0.00 0.00 0.00 47 1009.4
20260503234011 49 250 0.0 0.0 0.00 0.00 0.00 46 1009.3
20260503233509 49 250 0.0 0.0 0.00 0.00 0.00 41 1009.3
20260503233024 50 250 0.0 3.5 0.00 0.00 0.00 41 1009.3
20260503232507 50 250 0.9 3.5 0.00 0.00 0.00 40 1009.2
20260503232010 50 256 0.0 3.5 0.00 0.00 0.00 40 1009.2
20260503231527 50 317 0.0 4.3 0.00 0.00 0.00 40 1009.2
20260503231009 51 328 0.0 4.3 0.00 0.00 0.00 39 1009.2
20260503230504 51 309 0.0 7.0 0.00 0.00 0.00 39 1009.2
20260503230028 51 351 0.9 8.7 0.00 0.00 0.00 39 1009.2
20260503225509 51 329 2.6 8.7 0.00 0.00 0.00 38 1009.1
20260503225005 51 293 3.5 8.7 0.00 0.00 0.00 38 1009.1
20260503224528 51 350 0.9 8.7 0.00 0.00 0.00 38 1009.0
20260503224009 52 297 1.7 8.7 0.00 0.00 0.00 38 1009.0
20260503223507 52 311 0.0 12.2 0.00 0.00 0.00 38 1008.9
20260503223024 51 335 1.7 12.2 0.00 0.00 0.00 38 1009.0
20260503222508 52 325 4.3 11.3 0.00 0.00 0.00 38 1008.9
20260503222007 52 20 3.5 11.3 0.00 0.00 0.00 39 1009.0
20260503221526 52 347 0.9 17.4 0.00 0.00 0.00 39 1008.9
20260503221009 51 351 7.0 17.4 0.00 0.00 0.00 37 1008.8
20260503220514 51 342 5.2 13.9 0.00 0.00 0.00 38 1009.0
20260503220029 51 339 4.3 13.9 0.00 0.00 0.00 39 1008.9
20260503215511 51 207 3.5 12.2 0.00 0.00 0.00 39 1008.9
20260503215006 51 310 2.6 12.2 0.00 0.00 0.00 39 1008.9
20260503214516 52 349 7.0 12.2 0.00 0.00 0.00 38 1009.0
20260503214004 52 19 5.2 13.9 0.00 0.00 0.00 39 1008.8
20260503213508 52 5 4.3 16.5 0.00 0.00 0.00 40 1008.7
20260503213031 51 317 9.6 16.5 0.00 0.00 0.00 39 1008.7